Regional Weather Roundup
Issued by NWS

Home | Current Version | Previous Version | Graphics & Text | Print | Product List | Glossary On
Versions: 1 2 3 4 5 6 7 8 9 10 11 12 13 14 15 16 17 18 19 20 21 22 23 24 25 26 27 28 29 30 31 32 33 34 35 36 37 38 39 40 41 42 43 44 45 46 47 48 49 50
000
ASUS43 KLSX 230307
RWRMO

WEATHER SUMMARY FOR MISSOURI
NATIONAL WEATHER SERVICE SPRINGFIELD MO
1000 PM CDT TUE APR 22 2014

NOTE: "FAIR" INDICATES FEW OR NO CLOUDS BELOW 12,000 FEET WITH NO
       SIGNIFICANT WEATHER AND/OR OBSTRUCTIONS TO VISIBILITY.
       CURRENT SKY AND/OR WEATHER CONDITIONS ARE NOT AVAILABLE FOR
       CHILLICOTHE AND FARMINGTON.

MOZ001>031-035>038-043-044-053-054-230400-
...NORTHERN AND WESTERN MISSOURI...

CITY           SKY/WX    TMP DP  RH WIND       PRES   REMARKS
KANSAS CTY INT CLEAR     61  32  33 E12       30.00S
KANSAS C DTWN  CLEAR     61  33  35 E5        30.00R
LEE`S SUMMIT   CLEAR     59  34  39 E6        30.01S
ST JOSEPH      MOCLDY    60  34  37 E6        30.00R
CHILLICOTHE      N/A     52  42  69 NE3       30.04R
KIRKSVILLE     CLEAR     49  33  54 CALM      30.04R

$$
MOZ066>068-077>081-088>096-101>105-230400-
...SOUTHWEST MISSOURI...

CITY           SKY/WX    TMP DP  RH WIND       PRES   REMARKS
SPRINGFIELD    CLEAR     56  38  50 N5        30.00R
JOPLIN         CLEAR     52  42  69 NE3       30.01R

$$
MOZ032>034-039>042-045>050-055>058-069>072-230400-
...CENTRAL MISSOURI...

CITY           SKY/WX    TMP DP  RH WIND       PRES   REMARKS
COLUMBIA       CLEAR     55  35  47 NE7       30.02R
JEFFERSON CITY CLEAR     60  33  36 N5        30.02R
ROLLA          CLEAR     52  34  50 CALM      30.01R
SEDALIA        PTCLDY    57  36  45 SE5       30.02S
WHITEMAN AFB   CLEAR     54  31  41 CALM      30.01S
OSAGE BEACH    CLEAR     54  34  47 NE5       30.04R

$$
MOZ051-052-059>065-230400-
...EAST CENTRAL MISSOURI...

CITY           SKY/WX    TMP DP  RH WIND       PRES   REMARKS
ST LOUIS INTL  CLEAR     59  36  42 NW3       30.02R
SPIRIT OF STL  CLEAR     50  40  68 CALM      30.02R
ST CHARLES     CLEAR     54  39  57 N3        30.01R

$$
MOZ072>076-082>087-097>100-106>115-230400-
...SOUTH CENTRAL AND SOUTHEAST MISSOURI...

CITY           SKY/WX    TMP DP  RH WIND       PRES   REMARKS
CAPE GIRARDEAU CLEAR     57  38  48 NE3       29.98S
FARMINGTON     CLEAR     57  34  41 N3        30.03R
POPLAR BLUFF   CLEAR     59  40  49 NE6       29.97R
WEST PLAINS    CLEAR     58  31  35 N5        30.00R

$$



USA.gov is the U.S. government's official web portal to all federal, state and local government web resources and services.